EHI
14 14 15 13 11 9 7 6 6 4 3 4 6 6 5 5 4 3 4 5 5 5 6 6 4 4 5 6 6 5 5 4 4 6 7 6 4 5 5 4 4 4 4
14 14 14 14 12 9 8 7 6 5 4 5 5 5 4 4 3 3 4 5 5 5 5 6 4 4 5 5 5 5 4 4 5 6 6 4 4 4 4 4 4 4 4
13 13 14 14 12 10 9 8 7 6 6 6 5 4 4 4 4 4 4 5 6 6 5 6 5 4 4 4 4 4 4 5 6 5 4 3 3 4 4 4 4 4 4
13 13 14 14 13 11 10 9 8 7 6 6 6 6 6 6 6 6 6 6 6 6 6 6 6 5 4 3 3 3 4 6 5 4 3 3 4 5 5 4 4 3 3
13 14 14 13 13 12 12 11 9 8 7 6 6 6 6 6 6 6 6 6 6 6 6 6 6 6 5 5 4 5 5 5 5 4 3 3 5 7 8 5 4 3 3
14 14 13 13 13 13 13 12 10 9 7 7 6 7 8 8 7 7 6 6 6 6 6 6 6 6 6 6 7 7 6 5 5 4 3 4 5 8 10 7 5 4 3
13 14 15 15 14 13 13 13 12 10 9 8 7 8 10 10 9 8 7 7 6 6 6 6 6 6 6 7 8 8 7 6 5 4 4 5 6 8 9 8 6 6 6
12 13 15 17 15 13 13 14 13 12 10 9 9 9 10 10 9 9 8 7 6 6 6 6 6 7 7 8 9 9 9 7 5 4 4 6 8 8 8 8 7 8 9
11 11 13 16 16 15 15 14 13 12 10 10 10 10 10 10 9 9 9 8 7 7 7 7 7 7 9 9 10 10 10 9 7 4 4 7 12 11 9 8 8 8 9
10 10 11 14 16 18 17 16 14 12 10 10 10 10 11 10 9 9 10 11 9 9 10 10 10 10 10 10 10 10 10 10 9 5 4 9 15 15 12 10 8 8 9
8 8 9 11 14 16 17 16 15 14 12 11 12 13 13 12 11 11 12 15 15 14 14 15 15 14 12 11 11 11 10 10 8 5 5 14 20 19 15 13 10 9 10
5 5 7 8 10 11 12 13 14 14 13 12 14 16 16 14 14 13 15 19 21 19 16 15 15 14 12 10 11 12 10 8 7 5 9 20 25 23 18 14 10 9 11
4 4 5 8 9 9 10 11 12 12 11 11 13 15 14 13 13 13 16 19 21 19 15 11 10 10 9 9 10 11 9 6 5 6 12 23 30 28 22 16 12 11 12
5 5 6 10 12 12 12 12 11 10 9 10 12 12 12 12 12 12 15 16 16 15 12 9 9 7 6 7 7 8 7 5 5 6 12 22 30 30 25 19 16 15 14
7 8 10 13 14 16 18 17 14 10 9 10 11 12 13 14 12 13 14 14 12 10 9 9 8 7 7 7 7 6 5 4 5 6 10 20 27 29 26 22 20 19 18
11 14 15 16 16 18 20 19 15 11 11 12 12 13 15 14 14 15 15 12 9 8 7 7 6 7 7 7 7 6 4 3 3 6 9 16 24 27 26 24 22 21 20
18 19 17 15 16 17 17 15 12 11 11 13 13 13 14 15 16 18 16 11 9 9 8 6 5 5 6 7 8 7 5 4 5 7 10 14 19 23 24 23 21 20 19
25 22 16 13 16 18 18 15 13 11 11 11 11 11 13 14 16 17 14 10 10 10 8 5 4 4 6 8 10 10 7 7 8 8 10 12 14 17 21 22 21 20 19
31 26 19 16 18 20 22 21 16 12 9 7 7 7 9 11 12 12 11 9 9 8 7 5 5 5 7 9 11 10 8 8 9 8 8 11 12 14 18 21 20 20 19
32 29 24 22 22 22 22 22 18 12 8 5 6 5 6 8 9 9 9 8 7 5 5 6 7 6 6 7 7 6 6 7 8 7 6 8 11 12 14 15 15 14 14
32 31 29 26 25 23 20 18 16 12 8 6 7 7 6 6 8 7 7 7 6 5 5 6 7 6 5 4 4 4 4 4 5 5 4 5 7 8 8 9 9 9 9
34 34 33 31 28 24 19 16 14 11 8 7 9 10 7 6 6 5 5 6 8 8 7 6 6 6 5 5 6 6 4 3 2 2 2 2 5 7 6 6 8 9 9
35 36 37 35 32 28 22 16 12 9 7 8 12 13 9 7 6 6 7 8 10 12 11 8 7 7 7 7 9 8 6 4 3 2 2 4 7 9 7 4 7 10 9
34 37 40 40 37 32 26 19 14 9 7 9 13 14 12 10 11 12 12 12 12 13 12 10 8 8 8 9 9 8 7 6 6 6 5 7 9 10 8 5 6 9 9
33 36 41 43 40 34 29 25 21 14 8 8 11 14 15 16 18 18 18 17 14 12 11 10 9 8 9 10 11 10 8 7 8 8 7 7 7 8 7 6 7 8 8
33 35 41 45 41 33 29 29 27 19 11 7 11 15 17 19 21 20 19 20 17 11 9 10 10 9 9 11 13 12 8 7 9 9 8 5 5 6 6 7 8 8 8
Wind_Speed
9 11 12 11 10 9 9 8 7 7 8 8 8 8 9 8 8 8 9 9 8 9 9 9 8 8 7 7 7 6 6 6 5 6 7 7 7 7 6 6 6 7 9
11 11 13 12 11 10 9 8 8 7 7 8 8 8 8 8 8 8 9 8 8 8 8 9 8 7 7 6 6 5 5 5 5 5 6 6 6 6 5 5 6 6 9
12 12 12 12 11 10 9 8 8 8 8 8 8 8 8 8 8 8 9 8 8 8 7 8 8 7 6 6 5 5 4 4 4 5 5 4 6 6 5 6 8 8 8
12 11 12 13 11 10 9 8 8 8 8 8 8 7 7 7 7 7 7 7 7 7 7 7 7 6 6 6 5 5 4 4 3 4 4 3 5 7 6 6 7 8 8
12 12 13 13 11 10 9 8 8 8 8 8 7 7 7 6 6 6 7 6 6 6 7 6 6 6 5 5 5 4 4 4 5 6 2 2 4 7 6 6 7 7 7
13 14 13 13 12 10 9 8 8 7 7 7 6 6 6 6 6 6 7 7 6 6 6 6 6 5 5 5 5 5 4 5 5 4 2 3 5 7 7 6 6 7 7
12 13 13 14 12 11 10 9 8 7 6 6 5 5 6 6 6 6 7 7 7 6 5 5 6 5 4 4 5 5 5 5 5 3 2 3 5 7 7 7 6 7 7
12 12 12 14 12 11 10 9 8 7 6 5 5 5 6 6 6 6 7 7 7 7 6 5 5 5 5 5 5 5 6 6 5 4 3 4 8 8 7 7 7 7 8
11 10 9 10 10 10 10 8 8 7 6 5 4 4 6 6 7 7 7 7 7 7 6 6 6 6 6 6 6 6 6 6 5 4 3 5 9 9 8 8 8 8 8
9 8 7 7 8 8 8 8 8 7 5 4 4 4 5 6 7 8 7 7 7 7 8 8 8 8 7 7 7 8 8 7 6 5 2 5 11 10 9 8 9 9 9
7 6 6 6 6 5 6 8 7 7 5 5 4 4 4 3 4 6 7 9 9 9 9 9 9 9 8 8 9 9 7 4 4 3 2 8 11 10 10 9 9 9 9
6 5 6 6 5 4 3 4 3 4 4 4 2 2 2 1 2 3 6 10 11 10 10 10 10 10 8 5 7 8 4 5 4 3 4 11 11 11 10 10 10 9 9
5 5 5 6 5 4 3 2 1 1 2 2 2 1 1 0 1 1 2 4 6 7 5 6 7 5 4 3 3 4 4 4 2 2 5 10 11 11 10 10 10 10 10
6 5 5 5 5 4 3 2 1 1 1 1 2 1 1 0 0 1 1 1 1 2 2 2 2 3 2 2 3 3 3 3 1 1 4 9 10 10 10 10 10 11 11
5 4 4 4 4 3 2 2 2 2 1 2 2 1 1 0 0 1 0 0 1 1 1 2 1 1 2 2 2 3 3 2 2 2 3 8 8 8 9 9 10 10 11
5 4 4 3 4 3 2 2 2 1 1 1 2 2 1 1 1 1 0 0 0 0 1 1 1 1 1 1 2 2 2 2 2 2 3 5 8 8 8 8 8 9 10
5 4 2 3 4 2 2 2 2 2 2 2 2 2 1 1 1 0 0 1 0 0 0 0 1 1 1 2 2 2 2 2 2 2 3 3 4 7 8 8 9 9 10
5 4 2 2 3 2 2 2 2 2 2 2 2 2 2 1 1 1 0 1 0 0 0 0 0 1 1 1 2 2 2 2 4 3 3 3 3 4 6 8 9 9 10
5 4 2 2 3 2 1 1 1 1 1 1 2 2 2 1 1 1 0 1 1 0 0 0 0 1 1 2 2 2 2 3 3 4 4 4 4 4 4 6 8 9 9
5 3 2 2 2 1 1 1 1 1 1 1 2 1 1 1 1 1 0 0 1 0 1 1 1 1 2 2 3 2 2 3 3 3 3 3 3 4 4 5 5 6 9
4 3 3 2 1 1 1 1 1 1 1 1 1 1 1 1 1 1 1 0 1 1 0 1 1 2 2 1 1 2 2 2 2 2 2 2 2 3 3 4 4 3 4
4 3 3 2 1 1 1 0 0 1 1 1 1 2 2 2 2 1 1 1 0 0 0 1 1 1 2 1 1 1 1 1 1 2 2 2 2 2 2 3 3 4 4
5 4 3 3 2 1 1 1 1 0 1 1 1 1 1 1 1 2 1 1 1 0 0 1 1 1 2 2 1 1 1 1 1 1 1 1 1 1 1 2 3 3 4
6 6 4 4 3 2 1 1 1 1 1 1 1 1 1 1 1 1 1 1 1 1 0 1 0 1 2 2 2 1 1 1 1 1 1 1 1 2 2 2 2 3 4
6 7 6 4 3 2 1 1 1 2 1 1 1 1 1 1 1 2 2 2 1 1 1 1 1 1 1 2 2 2 2 1 2 1 2 2 2 1 1 2 1 2 3
6 6 6 5 3 2 1 1 1 2 3 3 3 2 1 0 1 2 2 2 1 1 1 1 1 2 2 2 2 2 2 1 2 1 2 2 2 1 1 1 2 2 3
Wind_Direction
99 109 114 112 111 107 103 102 100 99 100 102 106 108 113 116 117 119 119 121 127 129 131 131 131 128 124 122 118 116 114 118 121 118 116 113 113 115 117 123 125 115 118
107 111 116 113 112 109 105 101 101 102 104 108 110 112 114 118 123 126 127 128 130 133 135 135 134 131 132 129 126 128 130 134 146 147 140 133 128 125 125 123 113 115 118
107 113 116 113 113 111 107 104 104 106 105 108 111 114 117 119 122 129 132 133 134 135 139 141 138 137 142 144 144 146 153 161 172 176 174 162 138 133 131 120 118 126 126
114 117 116 118 116 113 110 107 104 105 107 110 113 117 122 125 124 125 132 138 142 146 149 150 148 149 153 156 159 165 177 181 199 219 212 170 143 138 135 127 132 139 139
114 114 118 122 118 114 111 108 105 106 110 113 116 123 129 128 130 137 143 151 157 160 161 163 162 166 165 164 170 179 193 205 226 239 235 144 126 140 142 143 146 149 146
115 115 120 125 121 117 113 110 109 109 111 115 118 125 135 136 142 148 157 164 169 166 168 170 166 173 174 171 177 192 206 224 245 240 207 149 132 149 155 156 159 159 155
111 116 125 128 123 122 120 118 118 118 118 121 124 130 139 142 148 157 159 164 167 168 166 169 168 175 175 187 199 207 215 231 245 249 198 141 140 157 164 166 166 168 165
107 111 122 131 130 129 127 125 122 122 125 127 131 138 151 154 157 162 165 167 172 174 176 182 185 188 189 200 214 225 231 243 245 237 190 142 151 164 171 176 176 175 174
101 111 124 136 137 138 136 133 132 132 134 136 139 151 162 168 172 174 174 176 180 180 185 194 203 203 202 208 216 223 234 239 258 259 201 154 159 167 175 184 187 183 182
100 108 119 129 136 143 146 148 147 148 152 155 159 173 176 182 186 188 185 184 189 189 193 199 209 213 213 213 215 225 236 242 240 244 216 165 166 171 179 188 192 191 190
88 102 106 109 118 135 140 144 158 166 173 170 175 203 200 193 183 187 186 183 192 196 200 204 208 209 214 219 222 227 235 234 238 230 198 163 169 173 181 187 193 197 196
82 81 89 90 92 96 107 127 159 166 165 183 162 184 192 213 194 183 177 190 197 202 207 211 212 210 211 218 217 218 223 227 232 221 179 164 174 178 184 188 193 198 199
87 69 75 81 72 66 71 106 130 144 147 162 133 154 138 196 202 174 173 189 201 205 209 206 208 214 205 203 200 199 213 228 222 208 172 171 175 181 187 190 195 200 202
83 74 63 71 68 50 37 34 90 92 122 117 123 96 83 280 275 138 171 172 205 198 187 193 195 193 209 214 207 207 220 227 223 174 165 169 172 182 190 193 199 203 204
89 78 73 71 70 52 37 353 41 44 50 74 94 93 102 150 110 89 121 77 257 209 168 177 192 190 215 230 231 212 223 224 221 186 157 169 175 181 187 197 202 207 207
98 83 71 73 73 52 42 8 6 39 51 56 83 89 63 36 62 60 106 112 289 204 157 170 197 202 213 222 236 240 242 233 219 196 169 174 181 184 191 197 203 206 205
102 85 73 92 75 59 32 357 20 27 48 41 60 67 56 29 35 16 210 148 130 280 133 152 224 230 222 227 225 234 236 237 230 200 187 179 186 193 198 204 206 204 206
101 95 70 59 83 67 38 5 6 23 36 30 44 49 48 14 6 341 32 74 233 240 84 162 208 265 267 253 236 234 228 222 224 207 200 193 191 193 197 205 207 206 208
107 109 104 56 65 64 56 16 14 47 36 25 42 35 12 348 358 341 42 69 327 127 120 288 65 264 262 258 248 232 238 228 221 217 205 198 189 186 184 190 198 202 206
110 108 108 85 61 32 44 37 8 13 32 50 61 45 2 328 348 357 32 319 319 55 38 13 351 279 275 257 265 242 246 237 219 220 217 201 187 191 183 184 192 200 201
119 119 111 100 82 37 22 19 0 7 355 27 69 48 5 339 357 8 356 333 334 69 64 318 292 279 278 280 285 278 261 251 212 207 225 195 183 177 174 178 189 185 192
134 126 123 123 117 107 91 49 320 333 315 53 39 60 13 342 334 349 20 329 358 36 49 316 315 301 281 265 260 271 266 268 276 241 216 196 191 174 185 192 184 183 186
145 140 121 109 110 86 65 58 10 29 328 24 38 57 7 324 339 352 336 334 340 319 123 272 300 282 284 279 251 248 250 243 285 274 248 213 187 191 201 195 187 192 191
147 140 118 107 103 94 83 26 339 33 10 6 23 57 10 352 360 2 336 346 343 348 11 287 286 299 294 305 298 271 286 330 256 283 288 245 219 212 214 221 205 192 186
150 143 131 121 115 101 79 38 351 11 343 5 31 59 46 35 15 22 24 8 12 351 352 327 339 321 318 312 307 302 301 301 281 259 275 278 260 237 215 222 210 196 185
146 138 133 126 124 124 106 59 33 355 349 3 0 1 349 55 51 30 38 16 7 356 349 347 354 339 327 319 320 314 306 291 296 278 275 274 269 268 270 237 217 200 177